Location: NJAA Observatory
(40.6819°N, 74.8979°W)
Time: 00:37:37
(UTC-04:00)

Vanguard 1 - All Passes

Search period start: 29 July 2014 00:00
Search period end: 08 August 2014 00:00
Orbit: 650 x 3838 km, 34.2° (Epoch: 26 July)

Date Brightness Start Highest point End Pass type
(mag) Time Alt. Az. Time Alt. Az. Time Alt. Az.
29 Jul - 09:41:47 10° SW 09:46:13 38° SSE 09:52:40 10° E daylight
29 Jul - 12:00:22 10° WSW 12:06:19 52° S 12:16:49 10° ESE daylight
29 Jul - 14:19:57 10° W 14:27:46 36° SSW 14:41:00 10° SE daylight
29 Jul - 16:43:23 10° WSW 16:50:33 16° SSW 16:59:49 10° S daylight
30 Jul - 07:45:47 10° S 07:48:22 15° SSE 07:51:09 10° ESE daylight
30 Jul - 10:02:58 10° WSW 10:07:34 44° SSE 10:14:32 10° E daylight
30 Jul - 12:21:48 10° W 12:27:53 48° S 12:38:35 10° ESE daylight
30 Jul - 14:41:51 10° WSW 14:49:30 29° SSW 15:01:45 10° SSE daylight
30 Jul - 17:10:08 10° SW 17:12:25 10° SW 17:14:51 10° SSW daylight
31 Jul - 08:06:11 10° SSW 08:09:35 22° SSE 08:13:27 10° ESE daylight
31 Jul - 10:24:15 10° WSW 10:29:00 47° S 10:36:21 10° ESE daylight
31 Jul - 12:43:17 10° W 12:49:29 42° SSW 13:00:09 10° SE daylight
31 Jul - 15:04:05 10° WSW 15:11:16 23° SSW 15:21:55 10° SSE daylight
01 Aug - 08:27:03 10° SW 08:30:51 28° SSE 08:35:24 10° ESE daylight
01 Aug - 10:45:36 10° WSW 10:50:27 47° S 10:58:08 10° ESE daylight
01 Aug - 13:04:53 10° W 13:11:06 35° SSW 13:21:28 10° SE daylight
01 Aug - 15:27:01 10° WSW 15:33:04 17° SSW 15:41:09 10° S daylight
02 Aug - 06:31:56 10° SSE 06:32:53 11° SSE 06:33:50 10° SE daylight
02 Aug - 08:48:09 10° SW 08:52:11 35° SSE 08:57:11 10° E daylight
02 Aug - 11:07:00 10° WSW 11:11:57 44° S 11:19:50 10° ESE daylight
02 Aug - 13:26:39 10° WSW 13:32:45 28° SSW 13:42:26 10° SSE daylight
02 Aug - 15:52:10 10° SW 15:54:54 11° SSW 15:57:57 10° SSW daylight
03 Aug - 06:51:21 10° SSW 06:54:12 16° SSE 06:56:58 10° ESE daylight
03 Aug - 09:09:24 10° WSW 09:13:33 40° S 09:18:55 10° ESE daylight
03 Aug - 11:28:28 10° WSW 11:33:28 39° S 11:41:25 10° SE daylight
03 Aug - 13:48:43 10° WSW 13:54:27 22° SSW 14:02:53 10° SSE daylight
04 Aug - 07:11:57 10° SSW 07:15:32 22° SSE 07:19:03 10° ESE daylight
04 Aug - 09:30:44 10° WSW 09:34:58 42° S 09:40:35 10° ESE daylight
04 Aug - 11:50:01 10° WSW 11:55:00 33° SSW 12:02:47 10° SE daylight
04 Aug - 14:11:23 10° WSW 14:16:11 16° SSW 14:22:32 10° S daylight
05 Aug - 07:32:56 10° SW 07:36:53 29° SSE 07:40:50 10° ESE daylight
05 Aug - 09:52:08 10° WSW 09:56:24 41° S 10:02:12 10° ESE daylight
05 Aug - 12:11:43 10° WSW 12:16:34 27° SSW 12:23:52 10° SE daylight
05 Aug - 14:36:10 10° SW 14:37:56 11° SSW 14:39:52 10° SSW daylight
06 Aug - 05:35:49 10° S 05:38:40 14° SSE 05:41:11 10° SE daylight
06 Aug - 07:54:09 10° SW 07:58:15 34° S 08:02:30 10° ESE daylight
06 Aug - 10:13:36 10° WSW 10:17:51 37° S 10:23:44 10° ESE daylight
06 Aug - 12:33:40 10° WSW 12:38:10 21° SSW 12:44:30 10° SSE daylight
07 Aug - 05:56:10 10° SSW 06:00:06 20° SSE 06:03:26 10° ESE daylight
07 Aug - 08:15:30 10° WSW 08:19:39 38° S 08:24:05 10° ESE daylight
07 Aug - 10:35:08 10° WSW 10:39:19 31° S 10:45:06 10° SE daylight
07 Aug - 12:56:11 10° SW 12:59:48 15° SSW 13:04:25 10° S daylight
